QPF
0.00 0.00 0.00 0.01 0.01 0.01 0.01 0.02 0.02 0.01 0.01 0.01 0.01 0.01 0.01 0.01 0.01 0.02 0.03 0.03 0.03 0.03 0.03 0.02 0.03 0.03 0.02 0.02 0.02 0.01 0.01 0.01 0.01 0.01 0.01 0.01 0.01 0.04 0.09 0.15 0.17 0.07 0.04
0.00 0.00 0.00 0.01 0.01 0.01 0.02 0.02 0.03 0.02 0.01 0.01 0.01 0.01 0.01 0.01 0.01 0.02 0.02 0.03 0.03 0.03 0.02 0.02 0.03 0.03 0.02 0.02 0.01 0.01 0.00 0.01 0.02 0.03 0.02 0.02 0.02 0.04 0.08 0.14 0.17 0.05 0.04
0.00 0.00 0.00 0.00 0.01 0.02 0.02 0.02 0.03 0.03 0.02 0.01 0.01 0.01 0.01 0.01 0.01 0.01 0.01 0.02 0.02 0.02 0.01 0.01 0.02 0.02 0.01 0.01 0.01 0.01 0.00 0.01 0.04 0.08 0.18 0.09 0.02 0.04 0.08 0.11 0.11 0.05 0.04
0.00 0.00 0.00 0.00 0.01 0.02 0.02 0.02 0.02 0.02 0.02 0.02 0.01 0.01 0.01 0.01 0.01 0.01 0.01 0.01 0.01 0.01 0.01 0.01 0.01 0.01 0.01 0.01 0.01 0.01 0.01 0.02 0.08 0.20 0.26 0.10 0.03 0.02 0.06 0.06 0.05 0.03 0.04
0.00 0.00 0.00 0.00 0.01 0.02 0.02 0.02 0.02 0.03 0.02 0.02 0.01 0.01 0.01 0.01 0.01 0.01 0.01 0.01 0.01 0.01 0.01 0.01 0.01 0.01 0.01 0.01 0.01 0.01 0.01 0.02 0.07 0.19 0.18 0.13 0.08 0.04 0.04 0.04 0.04 0.04 0.04
0.00 0.00 0.00 0.00 0.01 0.01 0.02 0.02 0.03 0.03 0.03 0.02 0.01 0.01 0.01 0.01 0.01 0.01 0.01 0.01 0.01 0.01 0.01 0.01 0.01 0.01 0.01 0.01 0.01 0.00 0.01 0.02 0.08 0.08 0.06 0.09 0.07 0.04 0.05 0.04 0.05 0.05 0.04
0.01 0.01 0.01 0.00 0.01 0.01 0.02 0.03 0.03 0.03 0.02 0.02 0.01 0.01 0.01 0.01 0.01 0.01 0.01 0.01 0.01 0.01 0.00 0.00 0.00 0.00 0.00 0.01 0.01 0.01 0.01 0.03 0.07 0.03 0.04 0.09 0.06 0.04 0.05 0.06 0.06 0.04 0.03
0.04 0.02 0.02 0.01 0.02 0.03 0.04 0.04 0.03 0.02 0.02 0.02 0.01 0.01 0.01 0.01 0.01 0.01 0.01 0.01 0.01 0.01 0.01 0.00 0.00 0.00 0.00 0.00 0.01 0.00 0.01 0.02 0.03 0.02 0.02 0.04 0.02 0.03 0.04 0.05 0.05 0.05 0.04
0.13 0.06 0.04 0.02 0.01 0.02 0.04 0.05 0.04 0.02 0.02 0.02 0.02 0.01 0.02 0.02 0.01 0.01 0.01 0.01 0.01 0.01 0.01 0.01 0.00 0.00 0.00 0.00 0.00 0.00 0.00 0.01 0.03 0.02 0.03 0.01 0.00 0.01 0.01 0.02 0.02 0.04 0.04
0.11 0.09 0.07 0.05 0.04 0.02 0.01 0.03 0.05 0.04 0.03 0.03 0.03 0.02 0.02 0.02 0.02 0.02 0.01 0.01 0.01 0.01 0.01 0.00 0.00 0.00 0.00 0.00 0.00 0.00 0.00 0.01 0.03 0.05 0.03 0.01 0.00 0.01 0.01 0.01 0.01 0.02 0.04
0.16 0.11 0.11 0.08 0.05 0.05 0.04 0.02 0.04 0.05 0.06 0.05 0.05 0.03 0.03 0.06 0.07 0.06 0.04 0.02 0.01 0.01 0.01 0.01 0.01 0.01 0.01 0.01 0.00 0.00 0.01 0.04 0.10 0.12 0.05 0.01 0.00 0.00 0.00 0.01 0.02 0.02 0.02
0.20 0.12 0.10 0.09 0.06 0.06 0.07 0.07 0.09 0.09 0.09 0.10 0.12 0.08 0.09 0.12 0.13 0.11 0.08 0.04 0.02 0.02 0.03 0.03 0.02 0.02 0.03 0.05 0.05 0.01 0.01 0.04 0.08 0.11 0.06 0.01 0.01 0.00 0.01 0.01 0.01 0.01 0.01
0.14 0.13 0.11 0.10 0.09 0.08 0.10 0.11 0.12 0.15 0.15 0.13 0.14 0.13 0.14 0.11 0.09 0.10 0.11 0.10 0.07 0.07 0.10 0.09 0.05 0.06 0.06 0.08 0.08 0.06 0.06 0.13 0.10 0.08 0.09 0.04 0.01 0.01 0.01 0.01 0.02 0.02 0.02
0.15 0.13 0.13 0.11 0.11 0.11 0.09 0.11 0.11 0.11 0.11 0.12 0.14 0.12 0.15 0.13 0.13 0.13 0.14 0.13 0.12 0.12 0.14 0.10 0.09 0.07 0.06 0.07 0.05 0.05 0.06 0.09 0.06 0.07 0.15 0.09 0.02 0.01 0.02 0.03 0.03 0.03 0.04
0.21 0.17 0.12 0.11 0.13 0.18 0.20 0.15 0.12 0.12 0.11 0.12 0.13 0.11 0.12 0.12 0.12 0.13 0.11 0.10 0.09 0.11 0.12 0.10 0.08 0.08 0.06 0.06 0.05 0.04 0.04 0.02 0.05 0.08 0.11 0.07 0.02 0.02 0.02 0.03 0.03 0.04 0.05
0.17 0.15 0.12 0.10 0.11 0.15 0.21 0.18 0.14 0.11 0.11 0.11 0.11 0.09 0.09 0.11 0.10 0.11 0.12 0.10 0.09 0.10 0.11 0.10 0.08 0.08 0.07 0.06 0.05 0.04 0.02 0.02 0.05 0.10 0.13 0.12 0.05 0.02 0.03 0.04 0.05 0.06 0.07
0.17 0.14 0.11 0.08 0.08 0.11 0.15 0.15 0.10 0.08 0.09 0.10 0.11 0.09 0.07 0.07 0.08 0.09 0.09 0.09 0.07 0.07 0.08 0.08 0.08 0.09 0.07 0.06 0.05 0.04 0.03 0.02 0.02 0.03 0.07 0.11 0.09 0.05 0.04 0.04 0.06 0.06 0.08
0.18 0.17 0.14 0.08 0.09 0.10 0.15 0.14 0.10 0.07 0.07 0.08 0.07 0.07 0.05 0.06 0.05 0.06 0.05 0.04 0.03 0.04 0.05 0.05 0.07 0.08 0.07 0.06 0.06 0.05 0.06 0.04 0.02 0.03 0.04 0.06 0.08 0.10 0.11 0.06 0.05 0.05 0.06
0.23 0.22 0.15 0.14 0.12 0.11 0.12 0.11 0.09 0.08 0.07 0.05 0.05 0.04 0.04 0.03 0.03 0.04 0.05 0.05 0.05 0.05 0.04 0.04 0.05 0.06 0.06 0.06 0.04 0.04 0.03 0.03 0.03 0.02 0.02 0.03 0.05 0.09 0.10 0.08 0.06 0.05 0.05
0.22 0.24 0.15 0.12 0.12 0.12 0.12 0.10 0.09 0.09 0.07 0.05 0.03 0.04 0.04 0.03 0.02 0.03 0.04 0.04 0.03 0.04 0.04 0.04 0.04 0.03 0.03 0.03 0.02 0.02 0.02 0.02 0.03 0.03 0.02 0.02 0.03 0.04 0.06 0.08 0.09 0.06 0.07
0.21 0.21 0.16 0.12 0.12 0.13 0.13 0.10 0.09 0.10 0.09 0.05 0.03 0.03 0.04 0.04 0.04 0.03 0.04 0.04 0.03 0.03 0.04 0.04 0.04 0.03 0.02 0.01 0.01 0.02 0.02 0.02 0.02 0.03 0.02 0.02 0.02 0.04 0.08 0.10 0.11 0.12 0.11
0.16 0.18 0.14 0.11 0.13 0.13 0.13 0.12 0.11 0.11 0.08 0.05 0.04 0.03 0.03 0.03 0.03 0.02 0.02 0.02 0.03 0.04 0.06 0.05 0.04 0.04 0.02 0.01 0.01 0.02 0.02 0.03 0.02 0.01 0.02 0.02 0.02 0.03 0.05 0.09 0.12 0.12 0.11
0.12 0.13 0.11 0.11 0.11 0.12 0.13 0.10 0.10 0.09 0.07 0.06 0.04 0.03 0.03 0.02 0.02 0.02 0.02 0.02 0.03 0.03 0.05 0.04 0.03 0.03 0.02 0.01 0.00 0.01 0.01 0.02 0.03 0.02 0.01 0.01 0.01 0.01 0.02 0.04 0.07 0.09 0.09
0.12 0.09 0.09 0.07 0.08 0.08 0.09 0.10 0.07 0.06 0.06 0.05 0.04 0.03 0.03 0.02 0.02 0.01 0.02 0.01 0.01 0.01 0.02 0.02 0.01 0.01 0.01 0.01 0.00 0.00 0.00 0.01 0.02 0.02 0.02 0.01 0.01 0.01 0.01 0.02 0.04 0.06 0.07
0.06 0.07 0.06 0.05 0.06 0.07 0.08 0.08 0.07 0.06 0.05 0.03 0.03 0.03 0.02 0.02 0.02 0.01 0.01 0.01 0.01 0.01 0.01 0.01 0.01 0.01 0.01 0.01 0.00 0.00 0.00 0.00 0.01 0.01 0.02 0.01 0.01 0.01 0.01 0.01 0.02 0.03 0.04
0.05 0.05 0.06 0.05 0.06 0.07 0.06 0.06 0.06 0.05 0.04 0.02 0.02 0.02 0.01 0.01 0.01 0.01 0.01 0.01 0.01 0.01 0.01 0.01 0.01 0.00 0.00 0.00 0.00 0.00 0.00 0.00 0.00 0.00 0.01 0.01 0.01 0.00 0.00 0.00 0.00 0.01 0.01
MSLP
1008.92 1008.98 1009.32 1009.93 1010.72 1011.55 1012.32 1012.92 1013.32 1013.53 1013.61 1013.64 1013.70 1013.83 1014.06 1014.35 1014.67 1014.96 1015.17 1015.30 1015.36 1015.36 1015.36 1015.37 1015.41 1015.47 1015.53 1015.58 1015.59 1015.58 1015.55 1015.54 1015.58 1015.69 1015.88 1016.11 1016.37 1016.62 1016.81 1016.95 1017.01 1017.04 1017.06
1008.84 1009.03 1009.48 1010.16 1010.98 1011.81 1012.54 1013.09 1013.44 1013.61 1013.68 1013.72 1013.82 1014.00 1014.28 1014.62 1014.97 1015.26 1015.47 1015.59 1015.64 1015.64 1015.65 1015.67 1015.72 1015.78 1015.84 1015.86 1015.83 1015.77 1015.71 1015.67 1015.70 1015.82 1016.04 1016.32 1016.64 1016.93 1017.17 1017.32 1017.40 1017.42 1017.43
1008.76 1009.09 1009.65 1010.41 1011.26 1012.08 1012.77 1013.28 1013.59 1013.74 1013.81 1013.87 1014.00 1014.23 1014.54 1014.89 1015.23 1015.51 1015.70 1015.79 1015.82 1015.83 1015.84 1015.89 1015.96 1016.04 1016.09 1016.09 1016.03 1015.92 1015.81 1015.75 1015.77 1015.91 1016.15 1016.48 1016.85 1017.19 1017.47 1017.67 1017.77 1017.82 1017.84
1008.67 1009.14 1009.82 1010.66 1011.54 1012.36 1013.03 1013.50 1013.79 1013.93 1014.01 1014.10 1014.27 1014.52 1014.84 1015.19 1015.50 1015.73 1015.87 1015.93 1015.94 1015.95 1015.98 1016.05 1016.15 1016.25 1016.30 1016.28 1016.19 1016.05 1015.91 1015.82 1015.83 1015.98 1016.25 1016.62 1017.02 1017.41 1017.73 1017.96 1018.11 1018.19 1018.24
1008.58 1009.19 1009.99 1010.90 1011.82 1012.64 1013.29 1013.74 1014.01 1014.15 1014.25 1014.38 1014.58 1014.86 1015.18 1015.51 1015.78 1015.96 1016.05 1016.06 1016.05 1016.06 1016.11 1016.21 1016.33 1016.44 1016.49 1016.46 1016.35 1016.18 1016.01 1015.90 1015.91 1016.07 1016.36 1016.75 1017.18 1017.60 1017.95 1018.21 1018.39 1018.51 1018.62
1008.50 1009.24 1010.14 1011.11 1012.06 1012.89 1013.52 1013.96 1014.22 1014.37 1014.50 1014.66 1014.90 1015.20 1015.53 1015.83 1016.06 1016.20 1016.24 1016.22 1016.19 1016.19 1016.26 1016.37 1016.52 1016.64 1016.69 1016.65 1016.52 1016.33 1016.15 1016.03 1016.04 1016.20 1016.50 1016.90 1017.34 1017.76 1018.13 1018.41 1018.61 1018.77 1018.92
1008.44 1009.28 1010.26 1011.29 1012.25 1013.07 1013.69 1014.11 1014.36 1014.53 1014.69 1014.89 1015.16 1015.49 1015.83 1016.13 1016.34 1016.44 1016.45 1016.41 1016.36 1016.37 1016.44 1016.57 1016.72 1016.85 1016.89 1016.84 1016.70 1016.50 1016.32 1016.20 1016.22 1016.38 1016.69 1017.08 1017.51 1017.92 1018.27 1018.55 1018.76 1018.95 1019.14
1008.42 1009.32 1010.35 1011.40 1012.37 1013.17 1013.76 1014.16 1014.41 1014.58 1014.76 1015.00 1015.32 1015.68 1016.04 1016.35 1016.55 1016.65 1016.65 1016.60 1016.55 1016.56 1016.64 1016.77 1016.93 1017.05 1017.09 1017.03 1016.88 1016.69 1016.50 1016.40 1016.43 1016.60 1016.90 1017.29 1017.70 1018.08 1018.40 1018.65 1018.86 1019.04 1019.25
1008.44 1009.37 1010.41 1011.46 1012.40 1013.17 1013.73 1014.09 1014.32 1014.50 1014.70 1014.97 1015.33 1015.73 1016.12 1016.45 1016.68 1016.79 1016.79 1016.75 1016.72 1016.73 1016.81 1016.95 1017.09 1017.21 1017.24 1017.18 1017.03 1016.84 1016.68 1016.60 1016.64 1016.83 1017.13 1017.50 1017.89 1018.23 1018.51 1018.73 1018.90 1019.08 1019.28
1008.49 1009.41 1010.43 1011.45 1012.35 1013.07 1013.58 1013.91 1014.12 1014.30 1014.51 1014.81 1015.20 1015.64 1016.07 1016.43 1016.69 1016.82 1016.85 1016.84 1016.82 1016.84 1016.93 1017.06 1017.20 1017.30 1017.33 1017.26 1017.13 1016.96 1016.82 1016.76 1016.83 1017.03 1017.33 1017.69 1018.06 1018.37 1018.62 1018.80 1018.94 1019.08 1019.27
1008.55 1009.44 1010.42 1011.39 1012.24 1012.90 1013.36 1013.65 1013.83 1014.00 1014.23 1014.55 1014.96 1015.43 1015.90 1016.30 1016.59 1016.75 1016.82 1016.83 1016.83 1016.87 1016.96 1017.09 1017.23 1017.32 1017.35 1017.29 1017.16 1017.01 1016.90 1016.87 1016.96 1017.17 1017.48 1017.84 1018.19 1018.48 1018.71 1018.86 1018.98 1019.10 1019.27
1008.61 1009.44 1010.37 1011.27 1012.06 1012.67 1013.08 1013.34 1013.50 1013.67 1013.90 1014.24 1014.68 1015.17 1015.66 1016.08 1016.40 1016.60 1016.70 1016.73 1016.76 1016.82 1016.92 1017.05 1017.18 1017.28 1017.31 1017.26 1017.15 1017.02 1016.93 1016.92 1017.02 1017.25 1017.56 1017.92 1018.26 1018.56 1018.78 1018.93 1019.04 1019.14 1019.29
1008.64 1009.41 1010.27 1011.12 1011.84 1012.40 1012.78 1013.02 1013.19 1013.36 1013.60 1013.96 1014.40 1014.91 1015.41 1015.85 1016.19 1016.41 1016.53 1016.59 1016.64 1016.72 1016.83 1016.96 1017.10 1017.21 1017.24 1017.21 1017.12 1017.01 1016.93 1016.93 1017.04 1017.26 1017.57 1017.92 1018.27 1018.58 1018.81 1018.98 1019.10 1019.21 1019.35
1008.63 1009.34 1010.14 1010.92 1011.61 1012.13 1012.50 1012.74 1012.93 1013.12 1013.38 1013.75 1014.20 1014.71 1015.21 1015.66 1016.00 1016.23 1016.37 1016.46 1016.52 1016.61 1016.74 1016.89 1017.04 1017.15 1017.20 1017.18 1017.10 1017.00 1016.93 1016.92 1017.01 1017.21 1017.50 1017.85 1018.20 1018.53 1018.79 1019.00 1019.15 1019.28 1019.41
1008.57 1009.23 1009.97 1010.71 1011.36 1011.88 1012.26 1012.53 1012.75 1012.98 1013.27 1013.65 1014.11 1014.60 1015.10 1015.53 1015.87 1016.11 1016.26 1016.36 1016.45 1016.56 1016.70 1016.86 1017.02 1017.15 1017.22 1017.21 1017.15 1017.05 1016.96 1016.93 1016.98 1017.15 1017.40 1017.72 1018.07 1018.40 1018.70 1018.94 1019.13 1019.29 1019.44
1008.49 1009.10 1009.80 1010.50 1011.13 1011.66 1012.07 1012.40 1012.67 1012.95 1013.27 1013.67 1014.12 1014.60 1015.07 1015.49 1015.82 1016.06 1016.22 1016.34 1016.45 1016.57 1016.73 1016.91 1017.09 1017.23 1017.31 1017.32 1017.26 1017.16 1017.05 1016.98 1016.98 1017.09 1017.29 1017.56 1017.88 1018.21 1018.52 1018.79 1019.02 1019.21 1019.37
1008.42 1008.99 1009.64 1010.31 1010.94 1011.50 1011.96 1012.35 1012.69 1013.02 1013.38 1013.78 1014.23 1014.68 1015.12 1015.51 1015.83 1016.07 1016.25 1016.38 1016.51 1016.66 1016.84 1017.04 1017.23 1017.39 1017.48 1017.50 1017.45 1017.33 1017.20 1017.09 1017.04 1017.07 1017.19 1017.40 1017.66 1017.96 1018.26 1018.54 1018.79 1019.00 1019.17
1008.40 1008.93 1009.54 1010.19 1010.83 1011.41 1011.93 1012.39 1012.79 1013.18 1013.56 1013.97 1014.39 1014.82 1015.22 1015.58 1015.88 1016.12 1016.31 1016.48 1016.63 1016.81 1017.00 1017.21 1017.42 1017.59 1017.70 1017.73 1017.68 1017.57 1017.42 1017.28 1017.16 1017.12 1017.16 1017.27 1017.46 1017.70 1017.95 1018.21 1018.45 1018.66 1018.85
1008.49 1008.97 1009.53 1010.16 1010.80 1011.42 1012.00 1012.51 1012.98 1013.40 1013.80 1014.19 1014.58 1014.96 1015.32 1015.65 1015.94 1016.18 1016.39 1016.58 1016.77 1016.97 1017.18 1017.41 1017.62 1017.80 1017.92 1017.97 1017.94 1017.84 1017.69 1017.52 1017.36 1017.25 1017.20 1017.23 1017.32 1017.47 1017.65 1017.85 1018.06 1018.25 1018.43
1008.70 1009.13 1009.65 1010.25 1010.89 1011.54 1012.15 1012.72 1013.23 1013.67 1014.07 1014.44 1014.78 1015.10 1015.41 1015.70 1015.97 1016.22 1016.45 1016.67 1016.89 1017.12 1017.35 1017.58 1017.80 1017.98 1018.12 1018.19 1018.18 1018.11 1017.98 1017.81 1017.64 1017.48 1017.35 1017.28 1017.27 1017.32 1017.41 1017.54 1017.68 1017.84 1017.99
1009.03 1009.40 1009.88 1010.45 1011.08 1011.74 1012.39 1012.99 1013.53 1013.98 1014.36 1014.68 1014.96 1015.22 1015.47 1015.72 1015.98 1016.23 1016.48 1016.73 1016.98 1017.23 1017.47 1017.71 1017.92 1018.11 1018.27 1018.36 1018.39 1018.36 1018.27 1018.13 1017.96 1017.78 1017.60 1017.46 1017.35 1017.29 1017.28 1017.32 1017.39 1017.49 1017.62
1009.45 1009.77 1010.20 1010.74 1011.36 1012.03 1012.69 1013.31 1013.85 1014.30 1014.65 1014.92 1015.13 1015.33 1015.52 1015.72 1015.95 1016.21 1016.48 1016.75 1017.03 1017.29 1017.55 1017.78 1018.00 1018.19 1018.35 1018.48 1018.55 1018.58 1018.55 1018.46 1018.32 1018.14 1017.94 1017.74 1017.56 1017.41 1017.30 1017.24 1017.24 1017.28 1017.37
1009.90 1010.18 1010.57 1011.07 1011.67 1012.34 1013.01 1013.63 1014.18 1014.61 1014.92 1015.14 1015.30 1015.42 1015.56 1015.72 1015.93 1016.18 1016.46 1016.75 1017.04 1017.32 1017.58 1017.81 1018.02 1018.21 1018.38 1018.53 1018.66 1018.74 1018.78 1018.75 1018.66 1018.52 1018.32 1018.10 1017.86 1017.64 1017.46 1017.32 1017.25 1017.24 1017.29
1010.31 1010.56 1010.91 1011.39 1011.97 1012.62 1013.29 1013.92 1014.46 1014.88 1015.16 1015.34 1015.44 1015.52 1015.60 1015.72 1015.91 1016.15 1016.43 1016.74 1017.04 1017.32 1017.58 1017.80 1018.00 1018.19 1018.36 1018.54 1018.70 1018.84 1018.94 1018.99 1018.96 1018.86 1018.69 1018.47 1018.22 1017.95 1017.71 1017.52 1017.39 1017.34 1017.36
1010.62 1010.86 1011.19 1011.64 1012.20 1012.84 1013.50 1014.13 1014.66 1015.07 1015.34 1015.50 1015.56 1015.60 1015.65 1015.74 1015.91 1016.14 1016.42 1016.72 1017.03 1017.31 1017.56 1017.77 1017.96 1018.13 1018.31 1018.50 1018.69 1018.87 1019.03 1019.13 1019.17 1019.13 1019.00 1018.80 1018.55 1018.27 1018.01 1017.78 1017.61 1017.52 1017.51
1010.81 1011.04 1011.36 1011.79 1012.33 1012.95 1013.60 1014.22 1014.76 1015.17 1015.44 1015.59 1015.64 1015.66 1015.69 1015.77 1015.92 1016.14 1016.41 1016.71 1017.01 1017.29 1017.53 1017.73 1017.90 1018.06 1018.23 1018.42 1018.62 1018.83 1019.02 1019.17 1019.26 1019.27 1019.19 1019.03 1018.80 1018.54 1018.27 1018.03 1017.84 1017.72 1017.68
Thickness
5822 5815 5807 5803 5800 5796 5792 5789 5786 5783 5781 5778 5776 5775 5773 5772 5770 5769 5768 5767 5766 5765 5764 5763 5763 5762 5762 5762 5761 5761 5760 5759 5758 5757 5755 5754 5752 5751 5750 5749 5748 5746 5744
5823 5813 5805 5801 5798 5794 5791 5787 5784 5781 5779 5776 5774 5773 5771 5770 5768 5767 5766 5765 5764 5763 5762 5762 5761 5761 5760 5759 5759 5759 5758 5758 5757 5756 5754 5752 5751 5749 5749 5748 5747 5744 5743
5820 5810 5803 5799 5795 5792 5788 5785 5782 5779 5777 5774 5772 5770 5769 5767 5766 5765 5764 5763 5762 5761 5760 5760 5759 5758 5758 5757 5757 5757 5757 5756 5755 5754 5753 5752 5749 5748 5747 5746 5744 5743 5741
5817 5809 5803 5796 5793 5789 5786 5783 5780 5778 5775 5773 5771 5769 5767 5765 5764 5763 5762 5761 5760 5759 5759 5758 5757 5756 5756 5755 5755 5756 5756 5755 5754 5753 5753 5752 5749 5746 5745 5744 5742 5741 5740
5815 5807 5799 5794 5790 5787 5784 5781 5778 5775 5773 5771 5769 5767 5765 5763 5762 5760 5760 5759 5758 5757 5756 5755 5754 5754 5753 5753 5754 5754 5755 5754 5754 5753 5752 5750 5747 5744 5743 5742 5740 5739 5738
5812 5804 5795 5791 5787 5784 5781 5778 5776 5773 5771 5768 5766 5764 5763 5761 5760 5758 5757 5756 5755 5755 5754 5753 5752 5752 5751 5751 5752 5753 5754 5754 5755 5755 5752 5749 5745 5743 5742 5740 5739 5738 5737
5809 5800 5792 5788 5784 5781 5778 5776 5773 5771 5768 5766 5764 5762 5761 5759 5758 5756 5755 5754 5753 5752 5751 5751 5750 5749 5749 5749 5750 5751 5752 5754 5756 5755 5752 5748 5744 5742 5740 5739 5738 5736 5735
5806 5798 5789 5784 5781 5778 5775 5773 5771 5768 5766 5764 5762 5760 5758 5757 5755 5754 5753 5752 5751 5750 5749 5748 5748 5747 5747 5748 5749 5750 5751 5752 5756 5755 5751 5746 5743 5741 5739 5738 5736 5735 5734
5802 5794 5787 5782 5778 5775 5773 5770 5768 5766 5763 5761 5759 5758 5756 5755 5753 5752 5751 5750 5749 5747 5747 5746 5745 5745 5745 5746 5747 5749 5750 5752 5754 5753 5749 5745 5742 5740 5738 5736 5735 5734 5733
5798 5791 5786 5780 5776 5773 5770 5767 5765 5763 5761 5759 5757 5755 5754 5753 5752 5751 5749 5748 5747 5745 5744 5744 5743 5743 5744 5744 5746 5747 5749 5750 5752 5751 5747 5744 5742 5739 5737 5735 5734 5733 5732
5790 5788 5784 5778 5774 5773 5769 5765 5762 5760 5758 5756 5755 5753 5752 5751 5751 5749 5748 5746 5745 5744 5743 5742 5741 5741 5742 5743 5744 5746 5747 5749 5749 5747 5745 5743 5741 5739 5736 5734 5733 5732 5731
5781 5782 5781 5777 5774 5773 5770 5763 5762 5760 5756 5755 5754 5752 5751 5751 5750 5748 5745 5744 5743 5742 5741 5741 5740 5740 5740 5742 5743 5744 5746 5748 5748 5745 5743 5742 5740 5738 5736 5734 5732 5731 5730
5779 5778 5777 5775 5773 5771 5768 5763 5762 5760 5756 5755 5754 5751 5750 5749 5747 5745 5743 5742 5741 5740 5740 5739 5740 5740 5741 5742 5743 5744 5745 5745 5745 5744 5741 5739 5738 5737 5735 5733 5731 5730 5728
5774 5774 5773 5771 5768 5767 5766 5764 5762 5759 5756 5756 5752 5751 5749 5747 5745 5744 5743 5741 5740 5740 5739 5738 5738 5739 5740 5741 5742 5743 5743 5743 5743 5742 5738 5736 5736 5735 5733 5732 5730 5728 5727
5768 5768 5768 5768 5764 5763 5761 5760 5760 5758 5756 5755 5751 5749 5747 5745 5743 5742 5740 5740 5740 5739 5738 5737 5736 5737 5738 5738 5739 5740 5740 5741 5740 5739 5737 5735 5734 5733 5732 5730 5729 5728 5726
5765 5764 5764 5763 5761 5760 5757 5755 5756 5755 5753 5752 5750 5747 5745 5744 5742 5740 5739 5738 5738 5737 5736 5736 5735 5735 5736 5736 5736 5738 5738 5738 5738 5738 5736 5734 5733 5732 5731 5729 5728 5727 5726
5762 5761 5760 5758 5756 5756 5754 5754 5754 5753 5752 5750 5747 5745 5743 5742 5740 5739 5738 5737 5736 5736 5735 5734 5734 5734 5734 5734 5734 5735 5736 5736 5736 5735 5734 5733 5731 5730 5730 5729 5727 5725 5724
5760 5757 5756 5756 5753 5752 5752 5751 5752 5751 5749 5748 5745 5742 5741 5740 5739 5738 5737 5736 5735 5735 5734 5733 5732 5731 5730 5731 5731 5733 5734 5734 5734 5734 5733 5732 5731 5730 5729 5727 5726 5725 5724
5756 5752 5751 5751 5749 5749 5749 5749 5749 5748 5747 5746 5743 5741 5739 5738 5738 5737 5736 5735 5734 5734 5733 5732 5730 5729 5727 5728 5729 5731 5732 5733 5733 5733 5733 5731 5730 5729 5728 5727 5725 5724 5723
5752 5749 5747 5747 5747 5746 5746 5745 5744 5744 5743 5743 5741 5739 5737 5737 5736 5735 5735 5734 5733 5732 5730 5729 5728 5728 5727 5727 5729 5730 5731 5732 5732 5732 5731 5731 5730 5728 5727 5726 5723 5722 5721
5747 5744 5743 5743 5743 5743 5741 5740 5738 5737 5739 5739 5738 5737 5736 5735 5735 5734 5734 5732 5732 5730 5728 5728 5726 5726 5726 5727 5724 5724 5728 5731 5731 5730 5729 5728 5728 5727 5726 5724 5722 5720 5719
5743 5742 5742 5741 5741 5741 5740 5740 5738 5738 5738 5738 5736 5735 5734 5734 5734 5734 5733 5732 5730 5728 5727 5727 5725 5724 5725 5725 5721 5717 5717 5719 5724 5729 5727 5725 5725 5724 5722 5721 5719 5718 5717
5742 5741 5742 5740 5739 5740 5739 5739 5737 5736 5735 5734 5733 5732 5733 5733 5733 5732 5732 5731 5730 5729 5726 5725 5725 5723 5720 5723 5723 5717 5711 5707 5713 5720 5722 5722 5721 5720 5719 5718 5717 5716 5715
5744 5744 5743 5741 5739 5739 5738 5737 5734 5732 5730 5732 5732 5732 5732 5732 5732 5731 5731 5730 5729 5728 5726 5725 5723 5723 5720 5718 5720 5720 5717 5713 5706 5705 5713 5717 5717 5717 5716 5716 5714 5712 5711
5747 5745 5743 5741 5739 5738 5738 5737 5735 5734 5734 5734 5733 5731 5731 5730 5731 5731 5730 5729 5728 5727 5725 5724 5722 5721 5720 5717 5716 5716 5715 5714 5711 5704 5701 5706 5710 5713 5713 5712 5710 5708 5707
5749 5746 5744 5740 5738 5738 5737 5737 5735 5734 5734 5733 5731 5729 5729 5730 5730 5730 5729 5728 5727 5726 5724 5722 5721 5719 5717 5715 5714 5713 5711 5708 5705 5704 5700 5700 5702 5706 5708 5708 5706 5704 5703